#timestamp,LO_Frequency,Hit,StdDev 
1580569655.1,286047006.4,P
1580569656.0,286047006.4,P
1580569675.8,286047006.8,P
1580569695.7,286047007.4,Y
1580569715.5,286047000.4,P
1580569735.3,286046999.7,N
1580569755.2,286047002.7,N
1580569775.9,286047000.4,N
1580569795.7,286046999.9,N
1580569815.6,286046998.5,N
1580569835.4,286046998.4,N
1580569855.3,286046998.3,N
1580569875.1,286046998.8,N
1580569876.0,286046998.8,N
1580569895.8,286047001.1,N
1580569915.7,286046999.8,N
1580569935.5,286047001.7,N
1580569955.3,286047003.3,N
1580569975.2,286047005.3,N
1580569995.0,286047004.5,N
1580569995.9,286047004.5,N
1580570015.8,286047005.0,N
1580570035.6,286047002.9,N
1580570055.4,286047006.0,N
1580570075.3,286047005.9,N
1580570095.1,286047003.7,N
1580570115.9,286047006.0,N
1580570135.7,286047007.5,N
1580570155.5,286047005.1,N
1580570175.4,286047004.8,N
1580570195.2,286047004.7,N
1580570215.0,286047005.5,N
1580570215.9,286047005.5,N
1580570235.8,286047004.9,N
1580570255.6,286047005.2,N
1580570275.5,286047006.0,N
1580570295.3,286047005.3,N
1580570315.1,286047003.0,N
1580570335.9,286047003.6,N
1580570355.7,286047002.6,N
1580570375.6,286047001.5,N
1580570395.4,286047000.1,N
1580570415.2,286047000.7,N
1580570435.1,286047000.6,N
1580570436.0,286047000.6,N
1580570455.8,286046999.9,N
1580570475.6,286047002.7,N
1580570495.5,286047002.6,N
1580570515.3,286047000.4,N
1580570535.2,286047001.0,N
1580570555.9,286046998.5,N
1580570575.7,286047001.2,N
1580570595.6,286047001.2,N
1580570615.4,286046998.3,N
1580570635.2,286046998.7,N
1580570655.1,286046998.4,N
1580570656.0,286046998.4,N
1580570675.8,286047000.6,N
1580570695.7,286047001.1,N
1580570715.5,286046998.3,N
1580570735.3,286046998.2,N
1580570755.2,286047001.2,N
1580570775.0,286046998.7,N
1580570775.9,286046998.7,N
1580570795.8,286046998.8,N
1580570815.6,286046998.8,N
1580570835.4,286046999.0,N
1580570855.3,286046999.3,N
1580570875.1,286046999.4,N
1580570895.8,286046998.3,N
1580570915.7,286046998.3,N
1580570935.5,286046998.5,N
1580570955.4,286047000.5,N
1580570975.2,286047000.6,N
1580570995.0,286047001.0,N
1580570995.9,286047001.0,N
1580571015.8,286046999.7,N
1580571035.6,286047002.5,N
1580571055.5,286047000.8,N
1580571075.3,286046998.2,N
1580571095.1,286047001.1,N
1580571115.9,286047001.2,N
1580571135.7,286046998.3,N
1580571155.5,286047001.2,N
1580571175.4,286046998.2,N
1580571195.2,286047000.6,N
1580571215.1,286047000.3,N
1580571216.0,286047000.3,N
1580571235.8,286047000.4,N
1580571255.6,286047002.4,N
1580571275.5,286047001.9,N
1580571295.3,286047002.0,N
1580571315.1,286047001.9,N
1580571335.9,286047002.2,N
1580571355.7,286047004.4,Y
1580571375.6,286047002.3,P
1580571395.4,286047002.0,N
1580571415.2,286047004.3,P
1580571435.1,286047003.5,N
1580571436.0,286047003.5,N
1580571455.8,286047002.0,N
1580571475.6,286047000.5,N
1580571495.5,286046998.3,N
1580571515.3,286046998.7,N
1580571535.2,286046998.4,N
1580571555.9,286046998.3,N
1580571575.7,286046998.4,N
1580571595.6,286046998.3,N
1580571615.4,286046998.3,N
1580571635.2,286047001.1,N
1580571655.1,286047000.3,N
1580571656.0,286047000.3,N
1580571675.8,286047000.2,N
1580571695.7,286046999.7,N
1580571715.5,286047002.7,N
1580571735.3,286047002.2,N
1580571755.2,286047002.0,N
1580571775.0,286047002.1,N
1580571775.9,286047002.1,N
1580571795.8,286047002.1,N
1580571815.6,286047003.8,N
1580571835.4,286047003.9,N
1580571855.3,286047004.1,N
1580571875.1,286047004.0,N
1580571895.8,286047003.2,N
1580571915.7,286047005.1,N
1580571935.5,286047007.4,Y
1580571955.4,286047007.5,P
1580571975.2,286047006.1,N
1580571995.0,286047006.3,N
1580571995.9,286047006.3,N
1580572015.8,286047007.0,Y
1580572035.6,286047002.1,P
1580572055.4,286047004.4,N
1580572075.3,286047004.3,N
1580572095.1,286047006.0,Y
1580572115.9,286047000.4,P
1580572135.7,286047001.0,N
1580572155.5,286046999.2,N
1580572175.4,286046997.5,N
1580572195.2,286046995.2,N
1580572215.1,286046995.7,N
1580572216.0,286046995.7,N
1580572235.8,286046995.5,N
1580572255.6,286046995.7,N
1580572275.5,286046993.7,N
1580572295.3,286046995.4,N
1580572315.2,286046995.1,N
1580572335.9,286046996.1,N
1580572355.7,286046996.1,N
1580572405